Time,TemperatureF,DewpointF,PressureIn,WindDirection,WindDirectionDegrees,WindSpeedMPH,WindSpeedGustMPH,Humidity,HourlyPrecipIn,Conditions,Clouds,dailyrainin,SoftwareType,DateUTC
2013-05-11 00:01:00,65.0,24.0,30.00,West,270,0.0,6.0,21,-0.55,,,0.00,Weather View 32 v70,2013-05-11 04:01:00,
2013-05-11 00:06:00,65.0,22.9,30.00,South,180,1.0,6.0,20,-0.55,,,0.00,Weather View 32 v70,2013-05-11 04:06:00,
2013-05-11 00:11:00,65.0,20.4,30.00,WNW,292,1.0,6.0,18,-0.55,,,0.00,Weather View 32 v70,2013-05-11 04:11:00,
2013-05-11 00:16:00,65.0,22.9,30.00,ENE,67,0.0,6.0,20,-0.55,,,0.00,Weather View 32 v70,2013-05-11 04:16:00,
2013-05-11 00:21:00,65.0,21.6,30.00,SW,225,0.0,6.0,19,-0.55,,,0.00,Weather View 32 v70,2013-05-11 04:21:00,
2013-05-11 00:26:00,65.0,20.4,30.00,South,180,0.0,6.0,18,-0.55,,,0.00,Weather View 32 v70,2013-05-11 04:26:00,
2013-05-11 00:31:00,64.0,18.2,29.99,South,180,0.0,5.0,17,-0.55,,,0.00,Weather View 32 v70,2013-05-11 04:31:00,
2013-05-11 00:36:00,64.0,16.8,29.99,SE,135,0.0,4.0,16,-0.55,,,0.00,Weather View 32 v70,2013-05-11 04:36:00,
2013-05-11 00:41:00,64.0,18.2,29.99,West,270,0.0,4.0,17,-0.55,,,0.00,Weather View 32 v70,2013-05-11 04:41:00,
2013-05-11 00:46:00,64.0,16.8,29.99,SSE,157,0.0,4.0,16,-0.55,,,0.00,Weather View 32 v70,2013-05-11 04:46:00,
2013-05-11 00:51:00,64.0,16.8,29.98,SSE,157,0.0,4.0,16,-0.55,,,0.00,Weather View 32 v70,2013-05-11 04:51:00,
2013-05-11 00:56:00,63.0,13.0,29.99,SSE,157,0.0,4.0,14,-0.55,,,0.00,Weather View 32 v70,2013-05-11 04:56:00,
2013-05-11 01:01:00,63.0,11.3,29.98,SW,225,0.0,4.0,13,0.00,,,0.00,Weather View 32 v70,2013-05-11 05:01:00,
2013-05-11 01:06:00,63.0,9.5,29.98,SW,225,0.0,4.0,12,0.00,,,0.00,Weather View 32 v70,2013-05-11 05:06:00,
2013-05-11 01:12:00,63.0,7.6,29.98,SE,135,0.0,4.0,11,0.00,,,0.00,Weather View 32 v70,2013-05-11 05:12:00,
2013-05-11 01:17:00,63.0,9.5,29.98,SE,135,0.0,4.0,12,0.00,,,0.00,Weather View 32 v70,2013-05-11 05:17:00,
2013-05-11 01:22:00,63.0,7.6,29.98,NNW,337,0.0,4.0,11,0.14,,,0.00,Weather View 32 v70,2013-05-11 05:22:00,
2013-05-11 01:27:00,63.0,5.5,29.97,WNW,292,0.0,4.0,10,0.00,,,0.00,Weather View 32 v70,2013-05-11 05:27:00,
2013-05-11 01:32:00,63.0,9.5,29.97,WSW,247,1.0,4.0,12,0.00,,,0.00,Weather View 32 v70,2013-05-11 05:32:00,
2013-05-11 01:37:00,63.0,9.5,29.97,SSE,157,1.0,7.0,12,0.00,,,0.00,Weather View 32 v70,2013-05-11 05:37:00,
2013-05-11 01:42:00,63.0,7.6,29.97,South,180,0.0,7.0,11,0.00,,,0.00,Weather View 32 v70,2013-05-11 05:42:00,
2013-05-11 01:47:00,63.0,11.3,29.97,South,180,0.0,7.0,13,0.00,,,0.00,Weather View 32 v70,2013-05-11 05:47:00,
2013-05-11 01:52:00,63.0,11.3,29.97,SSW,202,0.0,7.0,13,0.00,,,0.00,Weather View 32 v70,2013-05-11 05:52:00,
2013-05-11 01:57:00,63.0,11.3,29.96,SSW,202,0.0,7.0,13,0.00,,,0.00,Weather View 32 v70,2013-05-11 05:57:00,
2013-05-11 02:02:00,63.0,9.5,29.96,SSW,202,1.0,7.0,12,0.00,,,0.00,Weather View 32 v70,2013-05-11 06:02:00,
2013-05-11 02:07:00,63.0,9.5,29.96,SSW,202,1.0,7.0,12,0.00,,,0.00,Weather View 32 v70,2013-05-11 06:07:00,
2013-05-11 02:12:00,63.0,9.5,29.95,ESE,112,0.0,7.0,12,0.00,,,0.00,Weather View 32 v70,2013-05-11 06:12:00,
2013-05-11 02:17:00,63.0,9.5,29.96,SSE,157,0.0,7.0,12,0.00,,,0.00,Weather View 32 v70,2013-05-11 06:17:00,
2013-05-11 02:22:00,62.0,4.7,29.95,SSE,157,1.0,7.0,10,0.00,,,0.00,Weather View 32 v70,2013-05-11 06:22:00,
2013-05-11 02:27:00,62.0,2.4,29.95,SW,225,0.0,7.0,9,0.00,,,0.00,Weather View 32 v70,2013-05-11 06:27:00,
2013-05-11 02:32:00,62.0,2.4,29.95,SSW,202,0.0,7.0,9,0.00,,,0.00,Weather View 32 v70,2013-05-11 06:32:00,
2013-05-11 02:37:00,62.0,4.7,29.95,SSW,202,0.0,6.0,10,0.00,,,0.00,Weather View 32 v70,2013-05-11 06:37:00,
2013-05-11 02:42:00,62.0,-0.1,29.95,SSW,202,1.0,6.0,8,0.00,,,0.00,Weather View 32 v70,2013-05-11 06:42:00,
2013-05-11 02:47:00,62.0,-2.9,29.95,SSW,202,2.0,6.0,7,0.00,,,0.00,Weather View 32 v70,2013-05-11 06:47:00,
2013-05-11 02:52:00,61.0,-3.7,29.94,ESE,112,0.0,6.0,7,0.00,,,0.00,Weather View 32 v70,2013-05-11 06:52:00,
2013-05-11 02:57:00,61.0,-6.8,29.94,West,270,0.0,6.0,6,0.00,,,0.00,Weather View 32 v70,2013-05-11 06:57:00,
2013-05-11 03:02:00,61.0,-6.8,29.93,SSW,202,0.0,6.0,6,0.00,,,0.00,Weather View 32 v70,2013-05-11 07:02:00,
2013-05-11 03:07:00,61.0,-10.6,29.93,SSW,202,0.0,6.0,5,0.00,,,0.00,Weather View 32 v70,2013-05-11 07:07:00,
2013-05-11 03:12:00,61.0,-10.6,29.93,ESE,112,0.0,6.0,5,0.00,,,0.00,Weather View 32 v70,2013-05-11 07:12:00,
2013-05-11 03:17:00,61.0,-15.0,29.93,SW,225,0.0,6.0,4,0.00,,,0.00,Weather View 32 v70,2013-05-11 07:17:00,
2013-05-11 03:22:00,61.0,-20.6,29.93,East,90,0.0,6.0,3,0.00,,,0.00,Weather View 32 v70,2013-05-11 07:22:00,
2013-05-11 03:27:00,61.0,-20.6,29.93,SSW,202,1.0,6.0,3,0.00,,,0.00,Weather View 32 v70,2013-05-11 07:27:00,
2013-05-11 03:32:00,61.0,-28.2,29.93,SSE,157,0.0,6.0,2,0.00,,,0.00,Weather View 32 v70,2013-05-11 07:32:00,
2013-05-11 03:37:00,61.0,-28.2,29.92,SSE,157,0.0,6.0,2,0.00,,,0.00,Weather View 32 v70,2013-05-11 07:37:00,
2013-05-11 03:42:00,61.0,-40.5,29.92,SE,135,0.0,6.0,1,0.00,,,0.00,Weather View 32 v70,2013-05-11 07:42:00,
2013-05-11 03:47:00,60.0,-41.1,29.92,SSW,202,1.0,6.0,1,0.00,,,0.00,Weather View 32 v70,2013-05-11 07:47:00,
2013-05-11 03:52:00,60.0,-41.1,29.91,South,180,0.0,6.0,1,0.00,,,0.00,Weather View 32 v70,2013-05-11 07:52:00,
2013-05-11 03:57:00,60.0,-41.1,29.91,South,180,1.0,6.0,1,0.00,,,0.00,Weather View 32 v70,2013-05-11 07:57:00,
2013-05-11 04:02:00,60.0,-41.1,29.91,SSW,202,0.0,6.0,1,0.00,,,0.00,Weather View 32 v70,2013-05-11 08:02:00,
2013-05-11 04:07:00,60.0,-41.1,29.91,SSW,202,0.0,6.0,1,0.00,,,0.00,Weather View 32 v70,2013-05-11 08:07:00,
2013-05-11 04:12:00,60.0,-41.1,29.90,South,180,0.0,6.0,1,0.00,,,0.00,Weather View 32 v70,2013-05-11 08:12:00,
2013-05-11 04:17:00,60.0,-41.1,29.90,SSW,202,0.0,6.0,1,0.00,,,0.00,Weather View 32 v70,2013-05-11 08:17:00,
2013-05-11 04:22:00,60.0,-41.1,29.90,SSW,202,0.0,6.0,1,0.00,,,0.00,Weather View 32 v70,2013-05-11 08:22:00,
2013-05-11 04:27:00,60.0,-41.1,29.89,WNW,292,1.0,6.0,1,0.00,,,0.00,Weather View 32 v70,2013-05-11 08:27:00,
2013-05-11 04:32:00,60.0,-41.1,29.89,WNW,292,0.0,4.0,1,0.00,,,0.00,Weather View 32 v70,2013-05-11 08:32:00,
2013-05-11 04:37:00,60.0,-41.1,29.89,SW,225,0.0,4.0,1,0.00,,,0.00,Weather View 32 v70,2013-05-11 08:37:00,
2013-05-11 04:42:00,60.0,-41.1,29.89,NW,315,0.0,4.0,1,0.00,,,0.00,Weather View 32 v70,2013-05-11 08:42:00,
2013-05-11 04:47:00,60.0,-41.1,29.89,North,360,0.0,4.0,1,0.00,,,0.00,Weather View 32 v70,2013-05-11 08:47:00,
2013-05-11 04:52:00,60.0,-41.1,29.90,WNW,292,0.0,4.0,1,0.00,,,0.00,Weather View 32 v70,2013-05-11 08:52:00,
2013-05-11 04:57:00,60.0,-41.1,29.90,SSE,157,1.0,4.0,1,0.00,,,0.00,Weather View 32 v70,2013-05-11 08:57:00,
2013-05-11 05:02:00,60.0,-41.1,29.90,South,180,0.0,6.0,1,0.00,,,0.00,Weather View 32 v70,2013-05-11 09:02:00,
2013-05-11 05:07:00,60.0,-41.1,29.90,SSE,157,0.0,6.0,1,0.00,,,0.00,Weather View 32 v70,2013-05-11 09:07:00,
2013-05-11 05:12:00,60.0,-41.1,29.90,ESE,112,2.0,7.0,1,0.00,,,0.00,Weather View 32 v70,2013-05-11 09:12:00,
2013-05-11 05:17:00,60.0,-41.1,29.90,SE,135,1.0,7.0,1,0.00,,,0.00,Weather View 32 v70,2013-05-11 09:17:00,
2013-05-11 05:22:00,60.0,-41.1,29.90,SE,135,0.0,7.0,1,0.00,,,0.00,Weather View 32 v70,2013-05-11 09:22:00,
2013-05-11 05:27:00,60.0,-41.1,29.89,South,180,0.0,7.0,1,0.00,,,0.00,Weather View 32 v70,2013-05-11 09:27:00,
2013-05-11 05:32:00,60.0,-41.1,29.89,SE,135,0.0,7.0,1,0.00,,,0.00,Weather View 32 v70,2013-05-11 09:32:00,
2013-05-11 05:37:00,60.0,-41.1,29.89,SSW,202,0.0,7.0,1,0.00,,,0.00,Weather View 32 v70,2013-05-11 09:37:00,
2013-05-11 05:42:00,59.0,-41.7,29.91,SSW,202,0.0,7.0,1,0.01,,,0.01,Weather View 32 v70,2013-05-11 09:42:00,
2013-05-11 05:47:00,59.0,-41.7,29.90,ESE,112,2.0,7.0,1,0.01,,,0.01,Weather View 32 v70,2013-05-11 09:47:00,
2013-05-11 05:52:00,59.0,-41.7,29.88,WSW,247,0.0,7.0,1,0.02,,,0.02,Weather View 32 v70,2013-05-11 09:52:00,
2013-05-11 05:57:00,59.0,-41.7,29.88,SSW,202,0.0,7.0,1,0.02,,,0.02,Weather View 32 v70,2013-05-11 09:57:00,
2013-05-11 06:02:00,59.0,-41.7,29.88,WSW,247,0.0,7.0,1,0.02,,,0.02,Weather View 32 v70,2013-05-11 10:02:00,
2013-05-11 06:07:00,58.0,-42.3,29.88,WSW,247,0.0,7.0,1,0.03,,,0.03,Weather View 32 v70,2013-05-11 10:07:00,
2013-05-11 06:12:00,58.0,-42.3,29.87,SSW,202,1.0,6.0,1,0.03,,,0.03,Weather View 32 v70,2013-05-11 10:12:00,
2013-05-11 06:17:00,58.0,-42.3,29.88,SSE,157,0.0,6.0,1,0.03,,,0.03,Weather View 32 v70,2013-05-11 10:17:00,
2013-05-11 06:22:00,58.0,-42.3,29.88,SE,135,2.0,6.0,1,0.03,,,0.03,Weather View 32 v70,2013-05-11 10:22:00,
2013-05-11 06:27:00,58.0,-42.3,29.88,SSW,202,1.0,6.0,1,0.03,,,0.03,Weather View 32 v70,2013-05-11 10:27:00,
2013-05-11 06:32:00,58.0,-42.3,29.87,South,180,0.0,6.0,1,0.03,,,0.03,Weather View 32 v70,2013-05-11 10:32:00,
2013-05-11 06:37:00,58.0,-42.3,29.88,SW,225,0.0,6.0,1,0.03,,,0.03,Weather View 32 v70,2013-05-11 10:37:00,
2013-05-11 06:42:00,58.0,-42.3,29.88,South,180,0.0,6.0,1,0.02,,,0.03,Weather View 32 v70,2013-05-11 10:42:00,
2013-05-11 06:47:00,58.0,-42.3,29.89,SSE,157,0.0,6.0,1,0.02,,,0.03,Weather View 32 v70,2013-05-11 10:47:00,
2013-05-11 06:52:00,58.0,-42.3,29.89,SSE,157,0.0,6.0,1,0.01,,,0.03,Weather View 32 v70,2013-05-11 10:52:00,
2013-05-11 06:57:00,58.0,-42.3,29.89,SSE,157,0.0,6.0,1,0.01,,,0.03,Weather View 32 v70,2013-05-11 10:57:00,
2013-05-11 07:02:00,58.0,-42.3,29.90,South,180,3.0,6.0,1,0.01,,,0.03,Weather View 32 v70,2013-05-11 11:02:00,
2013-05-11 07:07:00,58.0,-42.3,29.89,SE,135,0.0,6.0,1,0.00,,,0.03,Weather View 32 v70,2013-05-11 11:07:00,
2013-05-11 07:12:00,58.0,-42.3,29.89,South,180,2.0,6.0,1,0.00,,,0.03,Weather View 32 v70,2013-05-11 11:12:00,
2013-05-11 07:17:00,58.0,-42.3,29.89,SSE,157,3.0,6.0,1,0.00,,,0.03,Weather View 32 v70,2013-05-11 11:17:00,
2013-05-11 07:22:00,58.0,-42.3,29.89,South,180,3.0,6.0,1,0.00,,,0.03,Weather View 32 v70,2013-05-11 11:22:00,
2013-05-11 07:27:00,58.0,-42.3,29.89,South,180,0.0,7.0,1,0.00,,,0.03,Weather View 32 v70,2013-05-11 11:27:00,
2013-05-11 07:32:00,59.0,-41.7,29.89,SSW,202,0.0,7.0,1,0.00,,,0.03,Weather View 32 v70,2013-05-11 11:32:00,
2013-05-11 07:37:00,59.0,-41.7,29.89,SE,135,1.0,7.0,1,0.00,,,0.03,Weather View 32 v70,2013-05-11 11:37:00,
2013-05-11 07:42:00,59.0,-41.7,29.89,ESE,112,0.0,7.0,1,0.00,,,0.03,Weather View 32 v70,2013-05-11 11:42:00,
2013-05-11 07:47:00,59.0,-41.7,29.89,NNW,337,0.0,7.0,1,0.00,,,0.03,Weather View 32 v70,2013-05-11 11:47:00,
2013-05-11 07:52:00,59.0,-41.7,29.88,SSE,157,0.0,7.0,1,0.00,,,0.03,Weather View 32 v70,2013-05-11 11:52:00,
2013-05-11 07:57:00,59.0,-41.7,29.88,South,180,0.0,7.0,1,0.00,,,0.03,Weather View 32 v70,2013-05-11 11:57:00,
2013-05-11 08:02:00,59.0,-41.7,29.88,SSE,157,0.0,7.0,1,0.00,,,0.03,Weather View 32 v70,2013-05-11 12:02:00,
2013-05-11 08:07:00,59.0,-41.7,29.88,WSW,247,0.0,7.0,1,0.00,,,0.03,Weather View 32 v70,2013-05-11 12:07:00,
2013-05-11 08:12:00,60.0,-41.1,29.88,North,360,0.0,7.0,1,0.00,,,0.03,Weather View 32 v70,2013-05-11 12:12:00,
2013-05-11 08:17:00,60.0,-41.1,29.88,SSW,202,0.0,7.0,1,0.00,,,0.03,Weather View 32 v70,2013-05-11 12:17:00,
2013-05-11 08:22:00,60.0,-41.1,29.88,South,180,1.0,7.0,1,0.00,,,0.03,Weather View 32 v70,2013-05-11 12:22:00,
2013-05-11 08:27:00,60.0,-41.1,29.88,WSW,247,1.0,6.0,1,0.00,,,0.03,Weather View 32 v70,2013-05-11 12:27:00,
2013-05-11 08:32:00,60.0,-41.1,29.88,WSW,247,0.0,7.0,1,0.00,,,0.03,Weather View 32 v70,2013-05-11 12:32:00,
2013-05-11 08:37:00,61.0,-40.5,29.88,WSW,247,0.0,7.0,1,0.00,,,0.03,Weather View 32 v70,2013-05-11 12:37:00,
2013-05-11 08:42:00,61.0,-40.5,29.88,SSW,202,0.0,7.0,1,0.00,,,0.03,Weather View 32 v70,2013-05-11 12:42:00,
2013-05-11 08:47:00,61.0,-40.5,29.88,NE,45,1.0,7.0,1,0.00,,,0.03,Weather View 32 v70,2013-05-11 12:47:00,
2013-05-11 08:52:00,61.0,-40.5,29.87,SSE,157,0.0,7.0,1,0.00,,,0.03,Weather View 32 v70,2013-05-11 12:52:00,
2013-05-11 08:57:00,62.0,-39.9,29.87,South,180,0.0,7.0,1,0.00,,,0.03,Weather View 32 v70,2013-05-11 12:57:00,
2013-05-11 09:02:00,62.0,-39.9,29.88,SSW,202,0.0,7.0,1,0.00,,,0.03,Weather View 32 v70,2013-05-11 13:02:00,
2013-05-11 09:07:00,62.0,-39.9,29.88,ESE,112,2.0,7.0,1,0.00,,,0.03,Weather View 32 v70,2013-05-11 13:07:00,
2013-05-11 09:12:00,63.0,-39.3,29.88,SE,135,0.0,7.0,1,0.00,,,0.03,Weather View 32 v70,2013-05-11 13:12:00,
2013-05-11 09:17:00,64.0,-38.7,29.88,West,270,1.0,7.0,1,0.00,,,0.03,Weather View 32 v70,2013-05-11 13:17:00,
2013-05-11 09:22:00,64.0,-38.7,29.88,SE,135,1.0,9.0,1,0.00,,,0.03,Weather View 32 v70,2013-05-11 13:22:00,
2013-05-11 09:27:00,64.0,-38.7,29.88,ESE,112,0.0,9.0,1,0.00,,,0.03,Weather View 32 v70,2013-05-11 13:27:00,
2013-05-11 09:32:00,64.0,-38.7,29.88,SSE,157,0.0,9.0,1,0.00,,,0.03,Weather View 32 v70,2013-05-11 13:32:00,
2013-05-11 09:37:00,65.0,-38.1,29.88,SSW,202,0.0,9.0,1,0.00,,,0.03,Weather View 32 v70,2013-05-11 13:37:00,
2013-05-11 09:42:00,65.0,-38.1,29.88,SE,135,2.0,9.0,1,0.00,,,0.03,Weather View 32 v70,2013-05-11 13:42:00,
2013-05-11 09:47:00,65.0,-38.1,29.88,WSW,247,1.0,9.0,1,0.00,,,0.03,Weather View 32 v70,2013-05-11 13:47:00,
2013-05-11 09:52:00,66.0,-37.5,29.88,East,90,1.0,9.0,1,0.00,,,0.03,Weather View 32 v70,2013-05-11 13:52:00,
2013-05-11 09:57:00,66.0,-37.5,29.88,SSE,157,0.0,9.0,1,0.00,,,0.03,Weather View 32 v70,2013-05-11 13:57:00,
2013-05-11 10:02:00,66.0,-37.5,29.89,SE,135,1.0,9.0,1,0.00,,,0.03,Weather View 32 v70,2013-05-11 14:02:00,
2013-05-11 10:07:00,66.0,-37.5,29.88,South,180,1.0,9.0,1,0.00,,,0.03,Weather View 32 v70,2013-05-11 14:07:00,
2013-05-11 10:12:00,67.0,-36.9,29.88,SSE,157,0.0,9.0,1,0.00,,,0.03,Weather View 32 v70,2013-05-11 14:12:00,
2013-05-11 10:17:00,67.0,-36.9,29.88,SE,135,1.0,9.0,1,0.00,,,0.03,Weather View 32 v70,2013-05-11 14:17:00,
2013-05-11 10:22:00,67.0,-36.9,29.88,SSW,202,0.0,9.0,1,0.00,,,0.03,Weather View 32 v70,2013-05-11 14:22:00,
2013-05-11 10:27:00,67.0,-36.9,29.89,SSE,157,3.0,9.0,1,0.00,,,0.03,Weather View 32 v70,2013-05-11 14:27:00,
2013-05-11 10:32:00,67.0,-36.9,29.89,WSW,247,1.0,9.0,1,0.00,,,0.03,Weather View 32 v70,2013-05-11 14:32:00,
2013-05-11 10:37:00,66.0,-37.5,29.88,SSW,202,1.0,9.0,1,0.00,,,0.03,Weather View 32 v70,2013-05-11 14:37:00,
2013-05-11 10:42:00,66.0,-37.5,29.88,West,270,3.0,9.0,1,0.00,,,0.03,Weather View 32 v70,2013-05-11 14:42:00,
2013-05-11 10:47:00,66.0,-37.5,29.88,South,180,1.0,9.0,1,0.00,,,0.03,Weather View 32 v70,2013-05-11 14:47:00,
2013-05-11 10:52:00,67.0,-36.9,29.88,WSW,247,2.0,9.0,1,0.00,,,0.03,Weather View 32 v70,2013-05-11 14:52:00,
2013-05-11 10:57:00,67.0,-36.9,29.88,ESE,112,3.0,9.0,1,0.00,,,0.03,Weather View 32 v70,2013-05-11 14:57:00,
2013-05-11 11:02:00,67.0,-36.9,29.88,SSE,157,0.0,9.0,1,0.00,,,0.03,Weather View 32 v70,2013-05-11 15:02:00,
2013-05-11 11:07:00,67.0,-36.9,29.88,SSW,202,1.0,9.0,1,0.00,,,0.03,Weather View 32 v70,2013-05-11 15:07:00,
2013-05-11 11:12:00,67.0,-36.9,29.88,SSW,202,1.0,9.0,1,0.00,,,0.03,Weather View 32 v70,2013-05-11 15:12:00,
2013-05-11 11:17:00,68.0,-36.3,29.88,WNW,292,2.0,9.0,1,0.00,,,0.03,Weather View 32 v70,2013-05-11 15:17:00,
2013-05-11 11:23:00,69.0,-35.7,29.88,South,180,4.0,9.0,1,0.52,,,0.03,Weather View 32 v70,2013-05-11 15:23:00,
2013-05-11 11:28:00,70.0,-35.1,29.88,SW,225,0.0,9.0,1,0.00,,,0.03,Weather View 32 v70,2013-05-11 15:28:00,
2013-05-11 11:33:00,71.0,3.7,29.88,ENE,67,2.0,9.0,7,0.00,,,0.03,Weather View 32 v70,2013-05-11 15:33:00,
2013-05-11 11:38:00,72.0,20.1,29.88,West,270,1.0,10.0,14,0.00,,,0.03,Weather View 32 v70,2013-05-11 15:38:00,
2013-05-11 11:43:00,72.0,20.1,29.88,ENE,67,2.0,10.0,14,0.00,,,0.03,Weather View 32 v70,2013-05-11 15:43:00,
2013-05-11 11:48:00,71.0,9.2,29.89,SW,225,1.0,10.0,9,0.00,,,0.03,Weather View 32 v70,2013-05-11 15:48:00,
2013-05-11 11:53:00,72.0,18.4,29.89,West,270,4.0,10.0,13,0.00,,,0.03,Weather View 32 v70,2013-05-11 15:53:00,
2013-05-11 11:58:00,71.0,19.3,29.88,SW,225,0.0,10.0,14,0.00,,,0.03,Weather View 32 v70,2013-05-11 15:58:00,
2013-05-11 12:03:00,71.0,13.7,29.88,South,180,4.0,10.0,11,0.00,,,0.03,Weather View 32 v70,2013-05-11 16:03:00,
2013-05-11 12:08:00,71.0,15.7,29.88,West,270,2.0,10.0,12,0.00,,,0.03,Weather View 32 v70,2013-05-11 16:08:00,
2013-05-11 12:13:00,71.0,13.7,29.88,North,360,1.0,10.0,11,0.00,,,0.03,Weather View 32 v70,2013-05-11 16:13:00,
2013-05-11 12:18:00,71.0,6.6,29.87,South,180,1.0,10.0,8,0.00,,,0.03,Weather View 32 v70,2013-05-11 16:18:00,
2013-05-11 12:23:00,71.0,9.2,29.87,South,180,0.0,10.0,9,0.00,,,0.03,Weather View 32 v70,2013-05-11 16:23:00,
2013-05-11 12:28:00,71.0,11.6,29.87,WNW,292,0.0,10.0,10,0.00,,,0.03,Weather View 32 v70,2013-05-11 16:28:00,
2013-05-11 12:33:00,71.0,-34.5,29.87,SSW,202,1.0,10.0,1,0.00,,,0.03,Weather View 32 v70,2013-05-11 16:33:00,
2013-05-11 12:38:00,71.0,-34.5,29.87,SSE,157,0.0,9.0,1,0.00,,,0.03,Weather View 32 v70,2013-05-11 16:38:00,
2013-05-11 12:43:00,71.0,-34.5,29.87,ESE,112,1.0,9.0,1,0.00,,,0.03,Weather View 32 v70,2013-05-11 16:43:00,
2013-05-11 12:48:00,71.0,0.4,29.87,SSW,202,1.0,9.0,6,0.00,,,0.03,Weather View 32 v70,2013-05-11 16:48:00,
2013-05-11 12:53:00,70.0,5.9,29.87,SE,135,1.0,9.0,8,0.00,,,0.03,Weather View 32 v70,2013-05-11 16:53:00,
2013-05-11 12:58:00,71.0,3.7,29.87,South,180,1.0,8.0,7,0.00,,,0.03,Weather View 32 v70,2013-05-11 16:58:00,
2013-05-11 13:03:00,71.0,9.2,29.87,ESE,112,6.0,8.0,9,0.00,,,0.03,Weather View 32 v70,2013-05-11 17:03:00,
2013-05-11 13:08:00,71.0,9.2,29.86,WNW,292,4.0,8.0,9,0.00,,,0.03,Weather View 32 v70,2013-05-11 17:08:00,
2013-05-11 13:13:00,71.0,6.6,29.86,SE,135,0.0,8.0,8,0.00,,,0.03,Weather View 32 v70,2013-05-11 17:13:00,
2013-05-11 13:18:00,71.0,9.2,29.86,South,180,4.0,8.0,9,0.00,,,0.03,Weather View 32 v70,2013-05-11 17:18:00,
2013-05-11 13:23:00,71.0,11.6,29.86,NW,315,0.0,8.0,10,0.00,,,0.03,Weather View 32 v70,2013-05-11 17:23:00,
2013-05-11 13:28:00,71.0,9.2,29.86,East,90,1.0,8.0,9,0.00,,,0.03,Weather View 32 v70,2013-05-11 17:28:00,
2013-05-11 13:33:00,71.0,11.6,29.86,SSW,202,1.0,9.0,10,0.00,,,0.03,Weather View 32 v70,2013-05-11 17:33:00,
2013-05-11 13:38:00,70.0,13.0,29.86,SSE,157,4.0,9.0,11,0.00,,,0.03,Weather View 32 v70,2013-05-11 17:38:00,
2013-05-11 13:43:00,70.0,8.5,29.86,SW,225,3.0,9.0,9,0.00,,,0.03,Weather View 32 v70,2013-05-11 17:43:00,
2013-05-11 13:48:00,70.0,5.9,29.87,West,270,1.0,13.0,8,0.00,,,0.03,Weather View 32 v70,2013-05-11 17:48:00,
2013-05-11 13:53:00,69.0,-1.1,29.86,WSW,247,3.0,13.0,6,0.00,,,0.03,Weather View 32 v70,2013-05-11 17:53:00,
2013-05-11 13:59:00,69.0,5.1,29.86,SE,135,4.0,13.0,8,0.00,,,0.03,Weather View 32 v70,2013-05-11 17:59:00,
2013-05-11 14:04:00,69.0,-1.1,29.86,SSW,202,1.0,13.0,6,0.00,,,0.03,Weather View 32 v70,2013-05-11 18:04:00,
2013-05-11 14:09:00,69.0,-1.1,29.85,WSW,247,2.0,13.0,6,0.52,,,0.03,Weather View 32 v70,2013-05-11 18:09:00,
2013-05-11 14:14:00,69.0,-15.2,29.85,WNW,292,6.0,13.0,3,0.00,,,0.03,Weather View 32 v70,2013-05-11 18:14:00,
2013-05-11 14:19:00,69.0,-15.2,29.85,NW,315,2.0,13.0,3,0.00,,,0.03,Weather View 32 v70,2013-05-11 18:19:00,
2013-05-11 14:24:00,69.0,-35.7,29.85,WNW,292,5.0,13.0,1,0.00,,,0.03,Weather View 32 v70,2013-05-11 18:24:00,
2013-05-11 14:29:00,68.0,-15.9,29.85,WSW,247,1.0,13.0,3,0.00,,,0.03,Weather View 32 v70,2013-05-11 18:29:00,
2013-05-11 14:34:00,68.0,-10.1,29.84,SSE,157,9.0,13.0,4,0.00,,,0.03,Weather View 32 v70,2013-05-11 18:34:00,
2013-05-11 14:39:00,68.0,-23.7,29.84,SSW,202,2.0,13.0,2,0.00,,,0.03,Weather View 32 v70,2013-05-11 18:39:00,
2013-05-11 14:44:00,68.0,-15.9,29.84,SE,135,2.0,13.0,3,0.00,,,0.03,Weather View 32 v70,2013-05-11 18:44:00,
2013-05-11 14:49:00,68.0,-23.7,29.84,SSW,202,5.0,13.0,2,0.00,,,0.03,Weather View 32 v70,2013-05-11 18:49:00,
2013-05-11 14:54:00,68.0,-36.3,29.84,ENE,67,5.0,13.0,1,0.00,,,0.03,Weather View 32 v70,2013-05-11 18:54:00,
2013-05-11 14:59:00,68.0,-36.3,29.84,WNW,292,0.0,13.0,1,0.00,,,0.03,Weather View 32 v70,2013-05-11 18:59:00,
2013-05-11 15:04:00,68.0,-36.3,29.84,NE,45,4.0,13.0,1,0.00,,,0.03,Weather View 32 v70,2013-05-11 19:04:00,
2013-05-11 15:09:00,68.0,-23.7,29.84,ENE,67,5.0,13.0,2,0.00,,,0.03,Weather View 32 v70,2013-05-11 19:09:00,
2013-05-11 15:14:00,67.0,-36.9,29.83,SSE,157,0.0,13.0,1,0.00,,,0.03,Weather View 32 v70,2013-05-11 19:14:00,
2013-05-11 15:19:00,68.0,-36.3,29.83,WSW,247,2.0,13.0,1,0.00,,,0.03,Weather View 32 v70,2013-05-11 19:19:00,
2013-05-11 15:24:00,67.0,-16.5,29.83,WSW,247,1.0,13.0,3,0.00,,,0.03,Weather View 32 v70,2013-05-11 19:24:00,
2013-05-11 15:29:00,67.0,-16.5,29.83,SSW,202,7.0,11.0,3,0.00,,,0.03,Weather View 32 v70,2013-05-11 19:29:00,
2013-05-11 15:34:00,67.0,-16.5,29.83,SSE,157,0.0,13.0,3,0.00,,,0.03,Weather View 32 v70,2013-05-11 19:34:00,
2013-05-11 15:39:00,67.0,-2.5,29.83,WNW,292,5.0,13.0,6,0.00,,,0.03,Weather View 32 v70,2013-05-11 19:39:00,
2013-05-11 15:44:00,67.0,-16.5,29.83,WNW,292,3.0,13.0,3,0.00,,,0.03,Weather View 32 v70,2013-05-11 19:44:00,
2013-05-11 15:49:00,67.0,-10.8,29.83,SW,225,3.0,13.0,4,0.00,,,0.03,Weather View 32 v70,2013-05-11 19:49:00,
2013-05-11 15:54:00,67.0,-36.9,29.83,West,270,0.0,13.0,1,0.00,,,0.03,Weather View 32 v70,2013-05-11 19:54:00,
2013-05-11 15:59:00,67.0,-24.3,29.82,SW,225,6.0,13.0,2,0.00,,,0.03,Weather View 32 v70,2013-05-11 19:59:00,
2013-05-11 16:04:00,67.0,-36.9,29.82,ESE,112,5.0,13.0,1,0.00,,,0.03,Weather View 32 v70,2013-05-11 20:04:00,
2013-05-11 16:09:00,67.0,-36.9,29.82,ESE,112,0.0,13.0,1,0.00,,,0.03,Weather View 32 v70,2013-05-11 20:09:00,
2013-05-11 16:14:00,67.0,-36.9,29.82,SW,225,1.0,13.0,1,0.00,,,0.03,Weather View 32 v70,2013-05-11 20:14:00,
2013-05-11 16:19:00,67.0,-36.9,29.82,SSW,202,1.0,13.0,1,0.00,,,0.03,Weather View 32 v70,2013-05-11 20:19:00,
2013-05-11 16:24:00,67.0,-36.9,29.82,South,180,1.0,13.0,1,0.00,,,0.03,Weather View 32 v70,2013-05-11 20:24:00,
2013-05-11 16:29:00,67.0,-36.9,29.82,SSW,202,2.0,13.0,1,0.00,,,0.03,Weather View 32 v70,2013-05-11 20:29:00,
2013-05-11 16:34:00,67.0,-36.9,29.82,SSE,157,1.0,12.0,1,0.00,,,0.03,Weather View 32 v70,2013-05-11 20:34:00,
2013-05-11 16:39:00,67.0,-36.9,29.82,WSW,247,0.0,12.0,1,0.00,,,0.03,Weather View 32 v70,2013-05-11 20:39:00,
2013-05-11 16:45:00,67.0,-36.9,29.82,South,180,7.0,12.0,1,0.00,,,0.03,Weather View 32 v70,2013-05-11 20:45:00,
2013-05-11 16:50:00,67.0,-36.9,29.82,West,270,3.0,12.0,1,0.52,,,0.03,Weather View 32 v70,2013-05-11 20:50:00,
2013-05-11 16:55:00,67.0,-36.9,29.82,South,180,2.0,10.0,1,0.00,,,0.03,Weather View 32 v70,2013-05-11 20:55:00,
2013-05-11 17:00:00,67.0,-36.9,29.81,SE,135,0.0,10.0,1,0.00,,,0.03,Weather View 32 v70,2013-05-11 21:00:00,
2013-05-11 17:05:00,67.0,-36.9,29.81,SSW,202,0.0,10.0,1,0.00,,,0.03,Weather View 32 v70,2013-05-11 21:05:00,
2013-05-11 17:10:00,67.0,-36.9,29.82,WSW,247,2.0,10.0,1,0.00,,,0.03,Weather View 32 v70,2013-05-11 21:10:00,
2013-05-11 17:15:00,67.0,-36.9,29.83,South,180,2.0,10.0,1,0.00,,,0.03,Weather View 32 v70,2013-05-11 21:15:00,
2013-05-11 17:20:00,66.0,-37.5,29.82,SSW,202,2.0,10.0,1,0.00,,,0.03,Weather View 32 v70,2013-05-11 21:20:00,
2013-05-11 17:25:00,66.0,-37.5,29.82,East,90,2.0,10.0,1,0.00,,,0.03,Weather View 32 v70,2013-05-11 21:25:00,
2013-05-11 17:30:00,67.0,-36.9,29.82,West,270,2.0,10.0,1,0.00,,,0.03,Weather View 32 v70,2013-05-11 21:30:00,
2013-05-11 17:35:00,67.0,-36.9,29.82,SW,225,0.0,10.0,1,0.00,,,0.03,Weather View 32 v70,2013-05-11 21:35:00,
2013-05-11 17:40:00,67.0,-36.9,29.82,SE,135,0.0,10.0,1,0.00,,,0.03,Weather View 32 v70,2013-05-11 21:40:00,
2013-05-11 17:45:00,67.0,-36.9,29.82,SW,225,0.0,10.0,1,0.00,,,0.03,Weather View 32 v70,2013-05-11 21:45:00,
2013-05-11 17:50:00,67.0,-36.9,29.82,WSW,247,1.0,7.0,1,0.00,,,0.03,Weather View 32 v70,2013-05-11 21:50:00,
2013-05-11 17:55:00,67.0,-36.9,29.82,North,360,0.0,7.0,1,0.00,,,0.03,Weather View 32 v70,2013-05-11 21:55:00,
2013-05-11 18:00:00,66.0,-37.5,29.82,SSE,157,0.0,7.0,1,0.00,,,0.03,Weather View 32 v70,2013-05-11 22:00:00,
2013-05-11 18:05:00,66.0,-37.5,29.83,SSE,157,0.0,7.0,1,0.00,,,0.03,Weather View 32 v70,2013-05-11 22:05:00,
2013-05-11 18:10:00,66.0,-37.5,29.83,West,270,0.0,7.0,1,0.00,,,0.03,Weather View 32 v70,2013-05-11 22:10:00,
2013-05-11 18:15:00,66.0,-37.5,29.83,SSE,157,1.0,7.0,1,0.00,,,0.03,Weather View 32 v70,2013-05-11 22:15:00,
2013-05-11 18:20:00,66.0,-37.5,29.83,South,180,1.0,7.0,1,0.00,,,0.03,Weather View 32 v70,2013-05-11 22:20:00,
2013-05-11 18:25:00,66.0,-37.5,29.83,SE,135,0.0,6.0,1,0.00,,,0.03,Weather View 32 v70,2013-05-11 22:25:00,
2013-05-11 18:30:00,66.0,-37.5,29.83,South,180,0.0,6.0,1,0.00,,,0.03,Weather View 32 v70,2013-05-11 22:30:00,
2013-05-11 18:35:00,66.0,-37.5,29.82,SW,225,1.0,6.0,1,0.00,,,0.03,Weather View 32 v70,2013-05-11 22:35:00,
2013-05-11 18:40:00,65.0,-38.1,29.81,SSW,202,0.0,6.0,1,0.00,,,0.03,Weather View 32 v70,2013-05-11 22:40:00,
2013-05-11 18:45:00,65.0,-38.1,29.82,ESE,112,0.0,5.0,1,0.01,,,0.04,Weather View 32 v70,2013-05-11 22:45:00,
2013-05-11 18:50:00,65.0,-38.1,29.83,SSE,157,1.0,5.0,1,0.01,,,0.04,Weather View 32 v70,2013-05-11 22:50:00,
2013-05-11 18:55:00,64.0,-38.7,29.82,SSW,202,0.0,6.0,1,0.01,,,0.04,Weather View 32 v70,2013-05-11 22:55:00,
2013-05-11 19:00:00,64.0,-38.7,29.82,SSE,157,1.0,6.0,1,0.01,,,0.04,Weather View 32 v70,2013-05-11 23:00:00,
2013-05-11 19:05:00,64.0,-38.7,29.82,SSW,202,0.0,6.0,1,0.01,,,0.04,Weather View 32 v70,2013-05-11 23:05:00,
2013-05-11 19:10:00,64.0,-38.7,29.81,South,180,2.0,6.0,1,0.01,,,0.04,Weather View 32 v70,2013-05-11 23:10:00,
2013-05-11 19:15:00,64.0,-38.7,29.81,South,180,2.0,6.0,1,0.01,,,0.04,Weather View 32 v70,2013-05-11 23:15:00,
2013-05-11 19:20:00,64.0,-38.7,29.82,SSW,202,0.0,6.0,1,0.01,,,0.04,Weather View 32 v70,2013-05-11 23:20:00,
2013-05-11 19:25:00,64.0,-38.7,29.82,SSW,202,0.0,6.0,1,0.01,,,0.04,Weather View 32 v70,2013-05-11 23:25:00,
2013-05-11 19:31:00,63.0,-39.3,29.83,SSE,157,4.0,6.0,1,0.01,,,0.04,Weather View 32 v70,2013-05-11 23:31:00,
2013-05-11 19:36:00,63.0,-39.3,29.82,ESE,112,0.0,7.0,1,0.01,,,0.04,Weather View 32 v70,2013-05-11 23:36:00,
2013-05-11 19:41:00,63.0,-39.3,29.82,SSE,157,3.0,7.0,1,0.01,,,0.04,Weather View 32 v70,2013-05-11 23:41:00,
2013-05-11 19:46:00,63.0,-39.3,29.82,SW,225,0.0,7.0,1,0.00,,,0.04,Weather View 32 v70,2013-05-11 23:46:00,
2013-05-11 19:51:00,63.0,-39.3,29.82,West,270,2.0,7.0,1,0.00,,,0.04,Weather View 32 v70,2013-05-11 23:51:00,
2013-05-11 19:56:00,63.0,-39.3,29.82,South,180,0.0,7.0,1,0.00,,,0.04,Weather View 32 v70,2013-05-11 23:56:00,
2013-05-11 20:01:00,63.0,-39.3,29.81,SSE,157,0.0,7.0,1,0.00,,,0.04,Weather View 32 v70,2013-05-12 00:01:00,
2013-05-11 20:06:00,63.0,-39.3,29.81,WNW,292,0.0,7.0,1,0.00,,,0.04,Weather View 32 v70,2013-05-12 00:06:00,
2013-05-11 20:11:00,63.0,-39.3,29.81,WNW,292,0.0,7.0,1,0.00,,,0.04,Weather View 32 v70,2013-05-12 00:11:00,
2013-05-11 20:16:00,63.0,-39.3,29.80,SSE,157,0.0,7.0,1,0.01,,,0.05,Weather View 32 v70,2013-05-12 00:16:00,
2013-05-11 20:21:00,63.0,-39.3,29.81,SSE,157,0.0,7.0,1,0.01,,,0.05,Weather View 32 v70,2013-05-12 00:21:00,
2013-05-11 20:26:00,63.0,-39.3,29.81,SSE,157,0.0,7.0,1,0.01,,,0.05,Weather View 32 v70,2013-05-12 00:26:00,
2013-05-11 20:31:00,63.0,-39.3,29.81,ESE,112,0.0,7.0,1,0.01,,,0.05,Weather View 32 v70,2013-05-12 00:31:00,
2013-05-11 20:36:00,63.0,-39.3,29.81,ESE,112,0.0,6.0,1,0.01,,,0.05,Weather View 32 v70,2013-05-12 00:36:00,
2013-05-11 20:41:00,63.0,-39.3,29.81,SSE,157,0.0,6.0,1,0.01,,,0.05,Weather View 32 v70,2013-05-12 00:41:00,
2013-05-11 20:46:00,63.0,-39.3,29.81,SSW,202,2.0,6.0,1,0.01,,,0.05,Weather View 32 v70,2013-05-12 00:46:00,
2013-05-11 20:51:00,62.0,-39.9,29.81,South,180,0.0,6.0,1,0.01,,,0.05,Weather View 32 v70,2013-05-12 00:51:00,
2013-05-11 20:56:00,62.0,-39.9,29.81,South,180,0.0,5.0,1,0.01,,,0.05,Weather View 32 v70,2013-05-12 00:56:00,
2013-05-11 21:01:00,62.0,-39.9,29.80,SE,135,0.0,5.0,1,0.01,,,0.05,Weather View 32 v70,2013-05-12 01:01:00,
2013-05-11 21:06:00,62.0,-39.9,29.80,SE,135,0.0,4.0,1,0.01,,,0.05,Weather View 32 v70,2013-05-12 01:06:00,
2013-05-11 21:11:00,62.0,-39.9,29.81,SSW,202,0.0,4.0,1,0.01,,,0.05,Weather View 32 v70,2013-05-12 01:11:00,
2013-05-11 21:16:00,62.0,-39.9,29.79,ESE,112,0.0,4.0,1,0.00,,,0.05,Weather View 32 v70,2013-05-12 01:16:00,
2013-05-11 21:21:00,62.0,-39.9,29.80,South,180,0.0,4.0,1,0.00,,,0.05,Weather View 32 v70,2013-05-12 01:21:00,
2013-05-11 21:26:00,62.0,-39.9,29.80,South,180,0.0,4.0,1,0.00,,,0.05,Weather View 32 v70,2013-05-12 01:26:00,
2013-05-11 21:31:00,62.0,-39.9,29.79,ESE,112,0.0,4.0,1,0.00,,,0.05,Weather View 32 v70,2013-05-12 01:31:00,
2013-05-11 21:36:00,62.0,-39.9,29.79,SSW,202,0.0,6.0,1,0.00,,,0.05,Weather View 32 v70,2013-05-12 01:36:00,
2013-05-11 21:41:00,62.0,-39.9,29.79,WSW,247,2.0,6.0,1,0.00,,,0.05,Weather View 32 v70,2013-05-12 01:41:00,
2013-05-11 21:46:00,62.0,-39.9,29.79,SSW,202,0.0,6.0,1,0.00,,,0.05,Weather View 32 v70,2013-05-12 01:46:00,
2013-05-11 21:51:00,62.0,-39.9,29.79,SSW,202,0.0,6.0,1,0.00,,,0.05,Weather View 32 v70,2013-05-12 01:51:00,
2013-05-11 21:56:00,62.0,-39.9,29.79,SSW,202,0.0,6.0,1,0.00,,,0.05,Weather View 32 v70,2013-05-12 01:56:00,
2013-05-11 22:01:00,62.0,-39.9,29.79,SW,225,2.0,6.0,1,0.00,,,0.05,Weather View 32 v70,2013-05-12 02:01:00,
2013-05-11 22:06:00,62.0,-39.9,29.79,SSW,202,0.0,6.0,1,0.00,,,0.05,Weather View 32 v70,2013-05-12 02:06:00,
2013-05-11 22:11:00,62.0,-39.9,29.79,ESE,112,1.0,6.0,1,0.00,,,0.05,Weather View 32 v70,2013-05-12 02:11:00,
2013-05-11 22:17:00,62.0,-39.9,29.78,ESE,112,1.0,6.0,1,0.00,,,0.05,Weather View 32 v70,2013-05-12 02:17:00,
2013-05-11 22:22:00,62.0,-39.9,29.79,SSW,202,1.0,6.0,1,0.00,,,0.05,Weather View 32 v70,2013-05-12 02:22:00,
2013-05-11 22:27:00,62.0,-39.9,29.79,SE,135,0.0,6.0,1,0.00,,,0.05,Weather View 32 v70,2013-05-12 02:27:00,
2013-05-11 22:32:00,62.0,-39.9,29.79,SSE,157,3.0,6.0,1,0.00,,,0.05,Weather View 32 v70,2013-05-12 02:32:00,
2013-05-11 22:37:00,62.0,-39.9,29.79,SW,225,4.0,6.0,1,0.00,,,0.05,Weather View 32 v70,2013-05-12 02:37:00,
2013-05-11 22:42:00,62.0,-39.9,29.79,SSW,202,0.0,6.0,1,0.00,,,0.05,Weather View 32 v70,2013-05-12 02:42:00,
2013-05-11 22:47:00,62.0,-39.9,29.78,SE,135,0.0,6.0,1,0.00,,,0.05,Weather View 32 v70,2013-05-12 02:47:00,
2013-05-11 22:52:00,62.0,-39.9,29.78,ESE,112,0.0,6.0,1,0.00,,,0.05,Weather View 32 v70,2013-05-12 02:52:00,
2013-05-11 22:57:00,62.0,-39.9,29.78,South,180,2.0,6.0,1,0.00,,,0.05,Weather View 32 v70,2013-05-12 02:57:00,
2013-05-11 23:02:00,62.0,-39.9,29.78,SSW,202,3.0,6.0,1,0.00,,,0.05,Weather View 32 v70,2013-05-12 03:02:00,
2013-05-11 23:07:00,62.0,-39.9,29.78,SE,135,0.0,6.0,1,0.00,,,0.05,Weather View 32 v70,2013-05-12 03:07:00,
2013-05-11 23:12:00,62.0,-39.9,29.78,SE,135,1.0,6.0,1,0.00,,,0.05,Weather View 32 v70,2013-05-12 03:12:00,
2013-05-11 23:17:00,62.0,-39.9,29.78,WSW,247,0.0,6.0,1,0.00,,,0.05,Weather View 32 v70,2013-05-12 03:17:00,
2013-05-11 23:22:00,62.0,-39.9,29.78,WSW,247,2.0,5.0,1,0.00,,,0.05,Weather View 32 v70,2013-05-12 03:22:00,
2013-05-11 23:27:00,62.0,-39.9,29.78,SSE,157,3.0,5.0,1,0.00,,,0.05,Weather View 32 v70,2013-05-12 03:27:00,
2013-05-11 23:32:00,62.0,-39.9,29.78,East,90,1.0,6.0,1,0.00,,,0.05,Weather View 32 v70,2013-05-12 03:32:00,
2013-05-11 23:37:00,62.0,-39.9,29.78,WSW,247,0.0,6.0,1,0.00,,,0.05,Weather View 32 v70,2013-05-12 03:37:00,
2013-05-11 23:42:00,62.0,-39.9,29.77,SSE,157,0.0,6.0,1,0.00,,,0.05,Weather View 32 v70,2013-05-12 03:42:00,
2013-05-11 23:47:00,61.0,-40.5,29.77,SSW,202,0.0,6.0,1,0.00,,,0.05,Weather View 32 v70,2013-05-12 03:47:00,
2013-05-11 23:52:00,61.0,-40.5,29.77,SSW,202,0.0,6.0,1,0.00,,,0.05,Weather View 32 v70,2013-05-12 03:52:00,
2013-05-11 23:57:00,61.0,-40.5,29.77,SSW,202,0.0,6.0,1,0.00,,,0.00,Weather View 32 v70,2013-05-12 03:57:00,